Location: Rock Island IL
(41.5000°N, 90.5500°W)
Time: 14:24:55
(UTC-06:00)

Daily predictions for brighter satellites

Satellite Brightness Start Highest point End
(mag) Time Altitude Azimuth Time Altitude Azimuth Time Altitude Azimuth
SJ-7 4.3 17:30:05 10° SSE 17:34:07 82° ENE 17:38:08 10° N
Cosmos 2219 Rocket 2.5 17:28:54 10° SSW 17:34:32 73° WNW 17:40:10 10° NNE
MOS 1 4.3 17:29:55 10° SSE 17:35:34 86° ENE 17:41:16 10° NNW
Cosmos 540 Rocket 3.5 17:31:29 10° S 17:36:36 68° ESE 17:41:45 10° NNE
Cosmos 1328 3.7 17:33:06 10° S 17:37:00 70° E 17:40:57 10° NNE
YAOGAN 1 2.6 17:32:53 10° SSE 17:37:12 83° ENE 17:41:33 10° N
Cosmos 2333 Rocket 2.3 17:31:40 10° SSW 17:37:18 88° WNW 17:43:00 10° NNE
COSMO-SKYMED 1 3.3 17:34:07 10° NNE 17:38:06 34° E 17:42:02 10° SSE
BREEZE M DEB (TANK) 2.2 17:35:39 10° NW 17:38:43 34° NNE 17:40:43 10° E
Cosmos 2151 2.9 17:41:06 10° S 17:45:15 65° E 17:49:26 10° NNE
USA 215 3.8 17:39:31 10° E 17:45:29 39° NNE 17:51:28 10° NW
CZ-4 R/B 2.4 17:43:15 10° S 17:47:00 48° W 17:50:49 10° NNW
Cosmos 2278 Rocket 2.2 17:41:35 10° NNW 17:47:18 88° ENE 17:52:59 10° SSE
Cosmos 1726 2.1 17:45:02 10° N 17:48:50 84° E 17:52:36 10° S
Cosmos 1455 3.6 17:47:59 10° NNE 17:50:39 18° ENE 17:53:19 10° ESE
Resurs 01 Rocket 3.4 17:50:01 10° E 17:51:52 12° ENE 17:53:43 10° NE
Cosmos 1703 4.0 17:50:11 10° SSE 17:53:39 32° E 17:57:08 10° NNE
SJ-6B 4.1 17:51:23 10° ESE 17:54:31 22° ENE 17:57:42 10° NNE
Lacrosse 5 4.0 17:52:32 10° NW 17:55:13 14° N 17:57:53 10° NNE
Cosmos 2279 Rocket 3.9 17:58:05 10° N 18:04:18 73° E 18:10:32 10° SSE
SKYMED 3 4.5 18:03:52 10° NNE 18:08:14 75° ESE 18:12:33 10° S
CZ-2C R/B 4.2 18:04:08 10° SSW 18:08:41 36° W 18:13:08 10° NNW
Cosmos 1300 3.6 18:06:48 10° NNW 18:10:32 52° W 18:14:16 10° S
Cosmos 1151 Rocket 3.9 18:06:42 10° NNW 18:10:53 53° W 18:15:03 10° S
Cosmos 2237 Rocket 2.7 18:05:45 10° SW 18:11:18 61° WNW 18:16:54 10° NNE
Meteor 1-27 4.3 18:05:38 10° N 18:11:29 89° ENE 18:17:19 10° S
Cosmos 2369 Rocket 3.9 18:12:13 10° NNE 18:15:02 14° NE 18:15:08 14° NE
Lacrosse 4 Rocket 2.4 18:14:18 10° N 18:17:39 24° NE 18:18:28 22° ENE
SL-16 R/B 2.2 18:13:21 10° SSW 18:18:57 69° ESE 18:24:35 10° NNE
CENTAUR R/B 4.2 18:13:59 10° W 18:19:16 27° NW 18:25:06 10° NNE
SL-14 R/B 4.4 18:15:43 10° SSW 18:19:29 46° WNW 18:23:21 10° N
Cosmos 1340 Rocket 2.9 18:17:02 10° SSW 18:20:57 79° W 18:24:53 10° N
Cosmos 1484 Rocket 3.6 18:17:49 10° S 18:21:41 54° W 18:25:37 10° NNW
Cosmos 2242 Rocket 4.3 18:18:43 10° NNE 18:22:40 31° ENE 18:26:37 10° SE
Nadezhda 4 Rocket 4.1 18:18:00 10° SSE 18:24:02 54° E 18:30:11 10° NNE
ALOS 3.0 18:20:54 10° SE 18:24:53 29° ENE 18:28:54 10° N
USA 229 DEB 4.1 18:18:53 10° S 18:25:14 42° ESE 18:29:44 19° NE
USA 229 4.1 18:18:59 10° S 18:25:20 42° ESE 18:29:47 19° NE
Cosmos 1805 Rocket 3.5 18:20:59 10° S 18:25:26 81° E 18:29:55 10° N
SKYMED 2 3.9 18:21:56 10° N 18:26:16 69° WNW 18:30:33 10° SSW
Cosmos 1184 Rocket 3.2 18:23:32 10° SSE 18:26:41 40° E 18:27:44 30° NE
DMSP B5D1-3 4.4 18:21:42 10° NNE 18:26:50 81° ESE 18:31:56 10° S
Spot 2 Rocket 4.2 18:22:42 10° SE 18:27:01 30° ENE 18:31:21 10° N
Cosmos 2297 3.7 18:25:27 10° NNW 18:31:12 87° WSW 18:36:56 10° SSE
Cosmos 2058 4.1 18:30:40 10° SSW 18:34:35 43° WNW 18:38:31 10° N
Meteor 1-28 Rocket 3.3 18:31:14 10° N 18:34:57 73° WNW 18:38:40 10° SSW
Cosmos 1869 3.7 18:32:23 10° N 18:36:12 38° ENE 18:39:59 10° SSE
Iridium 4 Rocket 3.5 18:32:11 10° SSE 18:36:20 38° E 18:38:16 24° NE
Cosmos 1461 3.2 18:34:20 10° SW 18:38:30 65° NW 18:41:08 21° NNE
Sich 1 2.9 18:36:09 10° S 18:40:35 77° E 18:45:01 10° N
SOZ 4.1 18:39:15 10° SW 18:41:23 83° SE 18:41:27 81° E
Cosmos 1538 Rocket 4.0 18:36:24 10° SSW 18:41:42 88° ESE 18:46:59 11° NNE
Cosmos 1092 Rocket 4.0 18:39:15 10° SSE 18:45:25 57° E 18:51:37 10° NNE
Cosmos 923 Rocket 4.2 18:44:35 10° S 18:49:31 46° ESE 18:50:56 37° ENE
Cosmos 1633 Rocket 2.9 18:45:07 10° S 18:49:32 84° E 18:53:52 10° N
FENGYUN 3A 3.7 18:44:54 10° SE 18:50:03 52° ENE 18:55:17 10° N
Abrixas 3.9 18:48:23 10° WNW 18:50:53 28° NNW 18:50:53 28° NNW
METEOR-M 4.2 18:47:24 10° S 18:52:45 80° WSW 18:58:08 10° NNW
BREEZE-M DEB (TANK) 3.2 18:52:39 10° W 18:54:14 23° NW 18:54:14 23° NW
Cosmos 1356 Rocket 3.8 18:51:27 10° SSW 18:55:24 59° WNW 18:59:17 10° N
Cosmos 1680 Rocket 3.9 18:51:34 10° S 18:56:19 40° ESE 18:56:19 40° ESE
SL-19 R/B 4.2 18:52:11 10° SSE 18:58:02 73° ENE 19:03:38 10° NNW
FREGAT/IRIS 3.1 18:56:27 10° S 18:59:28 59° W 19:02:30 10° NNW
Aureole 1 Rocket 3.8 18:54:49 10° SSW 19:00:10 81° ESE 19:07:19 10° NNE
Lacrosse 5 rocket 3.9 18:59:31 10° WNW 19:02:19 19° SW 19:05:12 10° S
ATLAS 5 CENTAUR R/B 4.0 19:02:30 10° N 19:05:21 17° NNE 19:05:21 17° NNE
Cosmos 1626 3.7 19:05:50 10° SW 19:09:17 34° WNW 19:12:44 10° N
Cosmos 2195 Rocket 4.4 19:03:40 10° S 19:09:37 57° E 19:13:15 24° NNE
NOSS 3-1 (C) 4.3 19:12:21 10° S 19:15:41 29° SSE 19:15:41 29° SSE
Cosmos 773 Rocket 4.3 19:14:27 10° SSW 19:19:34 64° WNW 19:22:21 27° N
FengYun 1-2 T 4.2 19:14:21 10° SSE 19:19:56 82° WSW 19:25:29 10° NNW
Cosmos 1603 3.5 19:18:00 10° SSW 19:23:37 84° ESE 19:24:34 63° NNE
Cosmos 1943 Rocket 4.3 19:20:18 10° N 19:21:01 13° N 19:21:01 13° N
Cosmos 1455 4.2 19:23:05 10° NNW 19:26:22 28° W 19:29:40 10° SSW
Resurs 01 Rocket 1.8 19:26:51 53° SSW 19:27:46 69° WSW 19:32:13 10° NNW
USA 215 3.3 19:24:58 33° SE 19:28:10 76° SW 19:34:45 10° NW
Cosmos 2112 Rocket 4.5 19:27:19 10° SSW 19:31:03 48° S 19:31:03 48° S
CZ-4C R/B 4.2 19:32:06 10° NNW 19:35:48 22° NNE 19:35:48 22° NNE
Cosmos 1655 Rocket 4.1 19:32:09 10° S 19:37:30 61° SSE 19:37:30 61° SSE
Lacrosse 5 4.0 19:36:39 10° NNW 19:38:19 15° N 19:38:19 15° N
Cosmos 1627 Rocket 4.5 19:37:44 10° S 19:43:56 79° W 19:46:59 32° N
Lacrosse 4 Rocket 3.5 19:52:47 10° NW 19:54:54 24° WNW 19:54:54 24° WNW
Cosmos 2369 Rocket 3.6 19:54:21 10° NNW 19:56:59 28° NNW 19:56:59 28° NNW
ALOS 4.1 19:58:13 10° SSW 20:02:15 29° W 20:06:19 10° NW
SL-16 R/B 4.4 19:59:33 10° W 20:03:36 20° NW 20:06:54 13° N
